Simultaneous Nadir Overpasses (SNOs) Predictions

Prediction of SNOs between GOES-17 and FY3D Satellite Orbit:

Table of predicted SNOs for the next 14.0 days since TLE Epoch: 10/8/2022
Index Date Time (GOES-17) GOES-17 Lat,Lon FY3D Lat,Lon Distance(km) Time Diff (sec)
1 10/08/2022 11:16:37 0.03,-137.32 0.82,-140.88 405.70 80
2 10/09/2022 11:00:51 0.04,-137.32 -0.14,-136.41 102.65 80
3 10/11/2022 23:02:09 -0.04,-137.30 -0.07,-137.35 6.90 80
4 10/14/2022 11:06:01 0.03,-137.28 0.25,-138.26 112.22 80
5 10/15/2022 10:50:16 0.03,-137.26 -0.77,-133.81 395.08 80
6 10/16/2022 23:09:59 -0.03,-137.23 -0.49,-139.19 223.74 80
7 10/17/2022 22:54:14 -0.03,-137.22 0.53,-134.73 283.24 80
8 10/19/2022 11:13:51 0.02,-137.20 0.66,-140.11 331.28 80
9 10/20/2022 10:58:04 0.02,-137.18 -0.31,-135.64 175.45 80
10 10/21/2022 23:17:49 -0.01,-137.14 -0.88,-141.04 444.10 80
